Regional Weather Roundup
Issued by NWS

Home | Current Version | Previous Version | Graphics & Text | Print | Product List | Glossary On
Versions: 1 2 3 4 5 6 7 8 9 10 11 12 13 14 15 16 17 18 19 20 21 22 23 24 25 26 27 28 29 30 31 32 33 34 35 36 37 38 39 40 41 42 43 44 45 46 47 48 49 50
811
ASUS43 KBIS 261202
RWRND

NORTH DAKOTA REGIONAL WEATHER ROUNDUP
NATIONAL WEATHER SERVICE BISMARCK ND
700 AM CDT SAT MAY 26 2018

NOTE: "FAIR" INDICATES FEW OR NO CLOUDS BELOW 12,000 FEET WITH NO
SIGNIFICANT WEATHER AND/OR OBSTRUCTIONS TO VISIBILITY.


NDZ001>003-009>011-017-261300-
NORTHWEST NORTH DAKOTA

CITY           SKY/WX    TMP DP  RH WIND       PRES   REMARKS
WILLISTON      CLEAR     54  50  86 CALM      29.76R
6HR MIN TEMP:  50; 6HR MAX TEMP:  66;

MINOT          CLEAR     62  51  67 SW5       29.73R
$$

NDZ018>021-031>035-040>046-261300-
SOUTHWEST NORTH DAKOTA

CITY           SKY/WX    TMP DP  RH WIND       PRES   REMARKS
BISMARCK       CLEAR     61  51  70 SW6       29.77S
6HR MIN TEMP:  56; 6HR MAX TEMP:  63;

DICKINSON      CLEAR     57  49  74 SW6       29.79S
GARRISON         N/A     54  47  77 CALM      29.75S
6HR MIN TEMP:  50; 6HR MAX TEMP:  66;

HETTINGER ARPT CLEAR     50  46  86 CALM      29.84S
$$

NDZ004>008-012>016-024-026-027-054-261300-
NORTHEAST NORTH DAKOTA

CITY           SKY/WX    TMP DP  RH WIND       PRES   REMARKS
GRAND FORKS    FAIR      61  53  75 W6        29.63S
GRND FRKS AFB  FAIR      61  53  74 W5        29.65R
DEVILS LAKE    FAIR      62  53  72 NW7       29.72R
$$

NDZ022-023-025-028>030-036>039-047>053-261300-
SOUTHEAST NORTH DAKOTA

CITY           SKY/WX    TMP DP  RH WIND       PRES   REMARKS
FARGO          FAIR      63  53  70 SW7       29.67R
6HR MIN TEMP:  58; 6HR MAX TEMP:  68;

JAMESTOWN      SUNNY     63  55  75 W7        29.72R
$$





USA.gov is the U.S. government's official web portal to all federal, state and local government web resources and services.